TimeEDT,TemperatureF,Dew PointF,Humidity,Sea Level PressureIn,VisibilityMPH,Wind Direction,Wind SpeedMPH,Gust SpeedMPH,PrecipitationIn,Events,Conditions,WindDirDegrees,DateUTC
12:51 AM,82.9,71.1,67,30.05,10.0,SSW,5.8,-,N/A,,Clear,210,2013-07-18 04:51:00
1:51 AM,82.0,70.0,67,30.05,10.0,Calm,Calm,-,N/A,,Clear,0,2013-07-18 05:51:00
2:51 AM,82.4,71.6,70,30.02,10.0,Calm,Calm,-,N/A,,Scattered Clouds,0,2013-07-18 06:51:00
3:51 AM,80.1,71.1,74,30.02,10.0,South,3.5,-,N/A,,Partly Cloudy,190,2013-07-18 07:51:00
4:51 AM,79.0,72.0,79,30.02,9.0,Calm,Calm,-,N/A,,Partly Cloudy,0,2013-07-18 08:51:00
5:51 AM,78.1,71.1,79,30.02,8.0,Calm,Calm,-,N/A,,Clear,0,2013-07-18 09:51:00
6:51 AM,82.0,72.0,71,30.03,10.0,Calm,Calm,-,N/A,,Clear,0,2013-07-18 10:51:00
7:51 AM,84.0,72.0,67,30.04,10.0,WNW,5.8,-,N/A,,Clear,300,2013-07-18 11:51:00
8:51 AM,88.0,73.0,61,30.04,10.0,NW,6.9,-,N/A,,Clear,320,2013-07-18 12:51:00
9:51 AM,91.0,73.0,55,30.04,10.0,NW,4.6,-,N/A,,Clear,310,2013-07-18 13:51:00
10:51 AM,91.9,73.0,54,30.03,10.0,NNW,5.8,16.1,N/A,,Clear,340,2013-07-18 14:51:00
11:51 AM,95.0,68.0,41,30.03,10.0,WNW,8.1,-,N/A,,Clear,290,2013-07-18 15:51:00
12:51 PM,96.1,69.1,41,30.01,10.0,NW,5.8,-,N/A,,Clear,320,2013-07-18 16:51:00
1:51 PM,97.0,69.1,40,30.00,10.0,NNW,6.9,-,N/A,,Clear,330,2013-07-18 17:51:00
2:51 PM,97.0,68.0,39,29.98,10.0,West,8.1,-,N/A,,Partly Cloudy,270,2013-07-18 18:51:00
3:51 PM,97.0,68.0,39,29.96,10.0,NW,9.2,18.4,N/A,,Scattered Clouds,310,2013-07-18 19:51:00
4:51 PM,96.1,68.0,40,29.95,10.0,West,6.9,16.1,N/A,,Scattered Clouds,280,2013-07-18 20:51:00
5:51 PM,98.1,66.9,36,29.94,10.0,WSW,10.4,-,N/A,,Clear,250,2013-07-18 21:51:00
6:51 PM,95.0,68.0,41,29.95,10.0,WNW,8.1,-,N/A,,Clear,290,2013-07-18 22:51:00
7:51 PM,91.9,68.0,45,29.96,10.0,WNW,4.6,-,N/A,,Clear,300,2013-07-18 23:51:00
8:51 PM,91.0,69.1,48,29.96,10.0,SW,5.8,-,N/A,,Clear,230,2013-07-19 00:51:00
9:51 PM,89.1,71.1,55,29.96,10.0,West,3.5,-,N/A,,Clear,260,2013-07-19 01:51:00
10:51 PM,88.0,72.0,59,29.95,10.0,SSW,3.5,-,N/A,,Clear,210,2013-07-19 02:51:00
11:51 PM,87.1,72.0,61,29.94,10.0,South,5.8,-,N/A,,Clear,190,2013-07-19 03:51:00